Weather in Bloemfontein

South Africa     29°08′06″S   26°13′41″E
temp.,
°C
wind,
m/s
gust,
m/s
humid.,
%
clouds,
%
prec.,
mm/h
press.,
hPa
HPBL,
m
5 march, fri
fri523:00+23wnw233097 0.0 101131
02:00+20w343580 0.0 101123
05:00+15s115010 0.0 101223
08:00+23ne22335 0.0 1013167
11:00+29w69130 0.0 10122930
14:00+31w99120 0.0 10103528
17:00+30wsw89130 0.0 10093545
20:00+21ssw45190 0.0 101138
6 march, sat
sat623:00+17s22250 0.0 101323
02:00+15wnw12270 0.0 101323
05:00+16ne34220 0.0 101523
08:00+18ne69690 0.0 1016331
11:00+27n66290 0.0 10141060
14:00+31wnw79140 0.0 10113605
17:00+31wsw781461 0.0 10104028
20:00+25sw5131864 0.0 1012301
7 march, sun
sun723:00+19sw35240 0.0 101454
02:00+17ssw34220 0.0 101345
05:00+14ssw23180 0.0 101423
08:00+22wnw11140 0.0 1015153
11:00+28w59110 0.0 10131707
14:00+31w911130 0.0 10103560
17:00+30w810130 0.0 10083632
20:00+22sw5112117 0.0 1010178
8 march, mon
mon823:00+19sw48240 0.0 1011149
02:00+13ese01300 0.0 101123
05:00+12n11300 0.0 101123
08:00+21n34210 0.0 1011270
11:00+28nw69160 0.0 10101496
14:00+30wnw1012160 0.0 10073637
17:00+29nw8111980 0.0 10053534
20:00+24wnw6112673 0.0 1008243
9 march, tue
tue923:00+20wsw452943 0.0 100953
02:00+16sw342736 0.0 101023
05:00+13ene113467 0.0 101123
08:00+21nnw342465 0.0 1012290
11:00+28nw8111824 0.0 10101893
14:00+30nw10131812 0.0 10083282
17:00+30nw912200 0.0 10063583
20:00+22wsw7152030 0.0 1009397